Terminal Aerodrome Forecast
Issued by NWS Wilmington, OH

Current Version | Previous Version | Graphics & Text | Print | Product List | Glossary On
Versions: 1 2 3 4 5 6 7 8 9 10 11 12 13 14 15 16 17 18
027
FTUS41 KILN 220023 AAA
TAFCMH
TAF AMD
KCMH 220023Z 2200/2224 19008KT P6SM VCTS BKN040CB
      TEMPO 2200/2201 27015G30KT 1SM +TSRA BR OVC020CB
     FM220200 20007KT P6SM VCSH BKN040
     FM220400 24006KT P6SM BKN040
     FM220500 28006KT P6SM SCT040=

USA.gov is the U.S. government's official web portal to all federal, state and local government web resources and services.